Zurück zum Katalog

DELTA 1 DEB

AktivSSO
NORAD 8951·DEBRIS·🇺🇸 United States

Gestartet Jan 22, 1975 von Vandenberg Space Force Base

Loading…

Nächste Überflüge (nächste 24 Stunden)

TLE

AktuellSource: Space-Track

Epoche: Sep 13, 2026, 18:06 UTC

1 08951U 75004AH  26256.75436160  .00000719  00000-0  12688-3 0  9997
2 08951  98.0582 179.1472 0027529 214.5976 145.3440 14.70273455664327

Verfolge DELTA 1 DEB in Echtzeit mit AllMySat

Download on the App Store